Theta_e
340 341 340 339 339 338 338 338 337 338 337 337 336 336 335 334 335 336 337 338 339 342 343 339 340 341 339 337 338 337 339 341 339 336 338 340 338 335 334 334 336 336 335
342 341 339 339 338 338 338 337 337 338 337 338 338 336 336 335 335 335 336 337 338 339 339 339 338 339 338 336 334 336 338 338 337 336 339 339 340 339 333 335 335 333 332
345 341 340 339 338 338 337 338 338 338 338 339 339 337 337 336 336 335 335 336 337 338 339 339 336 337 335 334 334 336 336 337 337 339 339 339 340 338 332 331 331 332 331
344 341 340 339 338 338 337 338 338 338 339 339 339 339 338 337 337 336 335 336 338 339 338 339 337 334 335 334 335 336 337 337 338 339 338 336 338 333 332 331 329 330 329
345 342 340 339 339 338 336 336 336 337 338 338 339 340 339 338 338 337 336 336 338 339 338 337 337 336 335 335 336 337 338 337 338 337 335 334 334 333 331 331 331 330 331
346 343 340 339 339 337 336 336 336 336 336 336 337 339 340 340 339 338 336 336 338 338 337 336 336 336 336 336 337 338 337 337 335 335 333 333 333 332 330 332 330 331 333
346 346 346 345 342 338 337 336 336 337 337 337 337 338 340 341 339 339 337 336 336 337 336 336 336 337 337 336 336 337 337 333 336 334 332 332 333 332 330 331 330 332 333
346 346 345 344 342 340 338 337 336 337 337 338 339 340 341 341 340 339 337 337 336 336 336 336 336 337 337 337 337 337 336 332 337 335 332 333 332 334 334 332 332 333 333
326 338 341 343 342 341 340 339 338 337 336 336 337 339 341 342 341 339 338 337 337 336 336 335 336 336 336 337 336 336 336 332 334 335 335 332 334 334 334 333 333 332 333
315 316 315 315 320 329 338 341 341 340 339 337 335 334 337 341 342 340 339 338 337 336 336 335 336 336 336 337 337 336 336 334 332 334 335 332 333 333 333 333 332 332 333
312 311 311 312 312 312 315 323 324 332 339 339 339 338 336 335 340 341 340 338 337 337 336 336 336 335 335 337 337 337 336 334 332 333 331 331 333 333 333 333 332 331 332
307 307 308 309 310 311 311 311 311 312 322 327 329 337 338 337 336 339 340 340 338 338 336 335 336 335 335 336 337 337 336 334 332 333 332 330 333 333 332 332 332 332 332
306 306 306 306 307 309 309 309 309 309 309 310 313 318 318 337 337 338 339 340 340 339 338 336 336 335 334 335 336 336 335 335 334 333 329 330 333 333 331 332 332 332 331
305 304 305 306 306 306 307 307 307 307 307 308 308 309 311 321 337 338 336 338 340 340 339 337 337 335 334 334 335 336 335 334 333 333 331 331 333 333 331 332 333 332 329
304 304 304 305 305 306 306 306 306 306 306 306 307 308 308 310 317 331 338 336 337 340 339 338 337 335 334 333 334 335 335 334 333 332 332 331 333 331 333 334 336 331 328
302 302 302 302 303 303 304 305 305 305 305 305 306 306 307 308 311 325 332 337 337 336 340 338 337 336 335 334 333 335 335 334 334 332 331 329 331 332 334 335 335 333 329
301 301 301 302 302 302 302 303 303 303 303 304 304 305 305 305 308 311 317 331 337 338 337 340 339 337 336 334 333 333 334 334 334 333 332 328 330 331 333 334 334 332 331
300 300 300 301 301 301 301 301 302 302 301 301 301 302 304 304 304 306 309 320 332 337 338 337 338 337 336 335 334 333 334 334 333 333 331 328 328 331 333 334 333 331 331
300 299 299 300 300 300 300 300 299 299 299 299 299 299 300 302 303 303 305 308 323 334 337 337 337 336 335 334 334 333 333 334 334 333 333 332 330 331 332 334 333 331 330
299 297 298 299 298 298 297 297 297 297 297 297 298 298 299 300 302 302 303 306 308 319 334 335 336 336 336 334 334 334 333 334 333 333 333 331 330 331 331 332 333 331 329
296 295 296 297 298 297 295 295 296 296 296 297 297 297 298 299 301 302 303 306 309 310 325 333 334 335 334 335 334 332 332 334 333 332 333 332 330 331 332 332 332 331 330
295 294 295 297 297 295 294 294 294 294 295 295 296 297 297 298 300 301 302 303 305 312 314 328 331 334 334 334 333 331 331 331 332 333 332 332 331 332 331 331 331 331 331
294 294 294 295 296 295 294 294 294 294 295 296 296 296 297 297 299 301 301 302 304 307 311 316 332 333 333 333 333 331 331 333 331 330 331 331 331 331 329 330 330 331 330
293 293 293 294 294 294 293 293 293 294 295 295 295 296 296 297 299 300 301 302 303 305 309 313 325 331 333 333 332 332 332 330 328 330 330 330 331 330 330 330 330 331 330
293 292 293 292 293 293 293 293 293 294 294 295 295 296 297 297 299 300 302 303 304 305 308 311 319 329 332 333 332 332 329 328 329 325 329 329 329 329 329 331 330 329 330
293 292 292 291 292 292 292 293 292 293 293 294 295 295 296 297 298 299 301 303 304 306 307 311 314 327 329 332 332 333 331 329 325 324 322 329 330 330 330 332 330 329 329
Wind_Speed
3 7 8 6 6 6 6 8 9 10 10 11 10 10 11 13 14 14 14 13 12 12 12 12 11 9 6 5 5 6 7 7 6 7 11 12 12 14 15 15 18 18 19
6 7 7 6 5 5 4 5 7 8 9 9 9 9 9 11 12 12 12 12 11 9 9 10 10 9 6 3 4 5 6 7 7 12 12 13 13 12 14 16 18 18 20
2 8 7 6 4 4 4 4 5 6 7 7 7 8 8 9 10 11 11 10 10 8 7 7 8 8 7 5 5 5 6 9 11 15 14 15 14 13 14 14 15 19 19
5 5 3 3 2 3 3 3 3 4 4 5 5 5 6 8 9 9 9 9 8 7 6 6 7 7 6 6 6 6 7 9 12 15 15 15 13 13 14 15 16 18 20
9 5 3 2 1 1 2 2 2 2 1 1 2 3 5 6 7 8 8 8 8 6 6 6 7 7 7 7 7 8 10 11 13 13 14 14 15 16 17 16 15 16 15
11 10 8 6 4 2 1 1 1 1 1 1 2 2 3 4 6 6 7 7 7 6 5 6 7 7 8 7 7 9 11 15 13 13 13 12 16 17 14 16 14 17 18
12 12 12 11 6 3 3 2 2 3 4 4 4 4 5 6 7 6 6 6 7 6 6 7 7 8 9 9 9 12 14 15 12 12 15 13 15 13 13 17 16 17 19
15 13 13 13 11 7 5 5 6 6 7 7 6 5 5 7 9 9 8 8 8 8 8 8 8 8 9 11 10 14 16 17 16 14 15 13 16 15 14 17 17 16 17
25 20 20 17 15 12 10 10 10 10 9 9 9 8 7 7 9 10 10 10 10 9 9 9 10 9 10 11 12 15 17 18 14 12 15 14 16 16 15 16 16 16 18
33 33 32 32 28 21 16 13 13 13 13 13 12 11 10 9 11 12 12 12 12 11 11 11 11 11 11 12 13 16 19 19 17 15 16 14 15 15 17 19 18 18 19
33 32 31 30 29 28 27 22 22 19 16 16 16 16 14 13 13 14 16 15 15 14 13 12 13 12 12 12 13 16 18 21 20 16 16 16 18 17 19 19 19 20 20
31 30 31 30 29 28 26 26 25 23 20 19 20 19 21 20 17 17 18 18 17 17 15 14 14 14 14 14 14 15 16 21 22 19 19 21 21 22 21 20 21 21 21
24 29 30 30 29 29 28 29 28 27 23 21 20 20 23 21 23 21 20 20 20 19 19 18 18 18 18 17 17 17 19 21 23 21 18 23 23 24 22 21 24 24 22
28 28 28 30 31 31 30 30 29 29 27 26 25 23 21 23 23 27 26 24 23 23 23 22 22 22 21 19 20 19 21 23 22 22 21 21 26 25 24 24 26 24 23
28 29 29 29 30 30 30 31 31 30 30 30 28 26 23 22 21 24 30 29 27 25 26 26 25 25 23 22 22 22 23 26 24 23 24 23 27 27 28 29 27 25 24
24 27 28 29 30 30 30 30 31 31 31 31 31 29 27 23 23 21 26 31 33 30 29 30 29 28 27 25 26 26 25 27 27 27 27 25 28 30 30 30 27 26 24
23 25 29 29 31 32 33 33 33 33 33 33 32 32 30 28 25 24 25 25 31 35 33 33 33 31 29 27 28 30 27 28 30 30 29 27 31 31 30 27 29 26 25
23 28 30 32 32 33 33 33 33 34 34 35 36 35 31 31 29 29 27 24 25 32 37 35 34 34 32 30 29 31 31 29 31 31 28 28 30 33 31 29 29 26 26
26 29 31 31 31 32 32 34 33 31 32 36 36 32 33 33 32 31 31 31 24 27 33 38 36 36 33 32 32 30 31 32 32 32 31 29 31 34 34 32 30 29 27
27 28 28 29 28 30 31 32 30 27 27 30 30 30 31 31 32 31 30 31 31 27 28 32 36 38 33 36 33 31 32 31 33 35 34 30 33 36 34 33 34 32 29
29 29 26 28 30 31 31 32 30 32 36 31 33 30 30 30 32 32 29 27 27 32 26 29 33 32 35 35 21 14 18 25 31 33 34 32 35 37 36 35 37 35 35
25 25 26 28 29 28 27 28 22 26 21 29 27 27 29 30 29 31 31 31 28 25 32 29 32 28 29 32 17 9 4 8 24 25 31 34 37 38 38 39 39 38 37
30 29 27 25 26 25 29 28 26 26 25 25 27 30 30 31 31 32 31 33 31 29 29 31 30 34 27 30 35 12 3 6 5 16 26 26 31 36 37 39 38 38 39
22 23 24 24 23 23 26 23 23 22 25 28 30 31 36 33 31 30 32 33 34 31 31 32 31 36 37 27 27 32 25 14 4 3 17 26 29 29 31 30 34 39 39
24 26 26 25 22 22 24 23 22 24 27 30 31 33 34 33 30 29 31 32 33 32 34 35 33 36 38 33 33 29 23 19 16 3 4 11 24 29 31 32 33 39 42
24 27 24 22 22 22 24 26 28 28 31 30 32 32 32 33 32 30 32 34 35 34 36 37 39 36 40 38 37 34 35 20 9 6 2 10 15 23 28 30 34 35 39
Wind_Direction
247 192 174 161 147 129 126 125 122 122 120 117 114 114 113 115 117 120 124 132 137 146 152 152 151 150 133 135 154 167 180 201 203 157 153 157 151 147 144 146 138 132 128
312 187 174 167 147 126 124 127 125 122 119 119 122 123 122 122 122 123 126 130 132 140 151 159 171 170 166 193 205 197 193 190 173 145 149 151 154 157 168 156 144 140 136
165 163 171 170 149 124 120 123 124 122 125 126 130 133 137 135 132 132 134 134 138 145 158 163 176 184 185 204 218 201 182 175 153 150 151 145 144 144 143 148 144 132 127
132 149 161 162 152 117 104 89 96 104 112 120 132 142 150 149 147 145 145 145 147 150 163 179 188 194 196 204 208 179 175 172 161 161 157 147 147 147 148 148 136 130 126
85 67 79 118 6 25 56 58 52 69 89 115 156 172 173 170 165 162 159 157 159 164 166 180 199 206 214 211 202 176 175 175 167 167 162 153 153 154 151 155 147 148 148
77 72 68 51 14 7 338 345 11 14 319 281 263 230 207 198 189 183 179 173 176 182 182 187 198 206 216 214 202 187 185 174 175 175 176 164 163 165 167 159 159 163 160
72 59 49 35 11 308 284 291 329 340 334 321 297 253 218 205 208 211 210 198 194 205 199 195 198 210 219 219 191 197 193 187 184 185 175 173 179 184 178 170 174 171 158
51 37 33 22 8 348 323 333 338 338 333 331 317 291 249 223 214 213 218 221 214 219 214 211 208 208 217 222 202 203 202 198 199 185 190 197 183 186 185 182 183 172 160
64 56 41 35 25 12 359 347 336 326 319 318 317 305 283 255 238 229 229 229 225 225 227 227 225 215 216 219 208 212 212 204 211 218 196 187 186 184 185 183 183 173 166
62 58 51 50 51 44 25 10 348 336 327 320 313 302 289 270 251 246 239 233 232 231 231 232 232 228 224 221 212 217 219 208 216 206 202 206 196 188 180 177 187 177 173
54 48 43 41 38 37 37 32 20 359 352 335 321 311 295 279 264 253 247 241 236 235 233 234 232 233 233 228 222 221 232 213 214 213 216 215 196 193 181 183 188 180 183
44 40 37 32 27 24 21 17 16 12 358 352 348 330 311 295 275 261 254 249 243 240 236 232 233 233 234 229 229 222 224 213 221 225 239 220 199 186 186 187 193 185 187
46 38 30 25 21 15 9 3 1 359 356 350 343 338 335 307 288 272 259 251 247 242 239 231 228 229 231 230 228 223 220 215 223 230 231 206 202 192 188 186 195 193 191
41 35 26 19 14 11 6 0 355 352 349 340 339 333 333 329 311 283 267 257 252 248 241 235 231 231 232 232 232 227 221 218 222 228 220 207 203 200 190 194 198 195 194
39 28 23 15 11 6 1 358 354 351 346 340 335 331 329 317 310 309 288 266 253 249 245 238 234 236 233 232 233 230 221 225 228 227 216 212 208 206 196 195 195 194 195
40 29 22 15 9 4 1 356 352 347 342 339 335 333 327 319 309 306 300 287 262 250 245 243 239 239 237 231 231 233 228 226 226 225 220 214 213 213 203 196 195 193 194
39 27 21 12 6 3 360 355 351 346 342 338 334 330 327 324 317 301 291 290 280 262 249 246 243 243 243 233 231 236 234 228 229 229 230 233 216 215 211 199 199 196 199
35 27 16 10 4 360 357 354 350 346 341 338 334 331 328 323 316 304 290 283 284 273 257 246 241 240 241 235 232 235 235 231 229 230 235 224 223 213 209 205 208 205 204
32 23 14 8 4 358 354 352 349 346 342 337 333 330 328 325 320 312 298 280 273 277 252 248 242 237 235 232 232 231 232 232 228 228 233 233 218 213 209 207 211 211 213
29 21 15 9 4 359 355 351 345 343 336 333 332 326 325 327 325 318 308 295 276 274 261 237 237 236 231 231 227 225 228 232 230 227 230 231 220 216 217 216 211 213 214
24 19 13 7 5 360 354 351 345 338 335 331 328 328 325 321 321 316 305 301 292 269 277 249 232 222 223 227 207 211 214 224 227 232 228 231 225 220 221 221 219 216 214
21 18 11 10 5 356 348 346 330 324 326 324 323 323 316 313 311 307 301 293 282 283 266 266 237 225 219 209 200 163 190 216 229 223 226 225 226 222 222 224 225 223 218
17 11 7 6 1 351 349 343 338 336 334 330 326 323 317 310 304 304 296 290 283 277 267 264 235 228 215 207 208 188 163 210 175 217 222 218 219 220 224 225 230 229 229
13 10 5 5 353 349 348 335 339 332 326 326 318 318 314 309 302 298 298 289 281 273 263 256 256 228 227 208 203 215 214 182 175 179 208 216 217 218 220 222 226 229 233
14 10 6 355 349 348 344 341 335 336 326 322 322 321 315 311 304 304 299 291 282 276 265 255 251 235 232 219 203 202 207 187 179 143 195 193 207 216 221 220 222 227 231
14 12 4 343 349 348 346 345 346 337 328 322 323 321 315 313 307 304 301 295 288 278 267 260 251 240 226 232 212 205 200 199 194 160 136 192 203 209 217 217 219 223 230